MyTimes logo

TIMES

Webb Imagery

10/02/2001
Channel Challenge
550m Swim / 2.0km Run

(Click on competitor name to view personalised results)

Name
Race #
Category
Time
(h:mm:ss)
Avg Speed
km/hr
OAll
Place
Cat
Place
QUIRK Bryce#2Senior Male0:10:50 14.1 11
VAN WISSE John#1Senior Male0:11:06 13.8 22
HARRIS Robert#138Senior Male0:11:12 13.7 33
RIX Joshua#14Senior Male0:11:16 13.6 44
BECKWORTH Adam#95Senior Male0:11:20 13.5 55
HUME Sam#223Senior Male0:11:41 13.1 66
REID Penny#322Senior Female0:12:10 12.6 71
NORDEN Michael#156Senior Male0:12:49 11.9 87
HOLLINS Peter#185Senior Male0:12:52 11.9 98
LENNE Heath#501Junior Male0:12:58 11.8 101
ARMSTRONG Graeme#50740-49 Male0:13:02 11.7 111
BOYD Luke#23Senior Male0:13:16 11.5 129
PANEBIANCO Leigh#536Junior Male0:13:19 11.5 132
MAGAZANIK Michael#5Senior Male0:13:24 11.4 1410
VELLIN Marc#204Senior Male0:13:30 11.3 1511
PANTON David#56940-49 Male0:13:30 11.3 162
CLEVERSLEY Daniel#636Junior Male0:13:33 11.3 173
DEVLIN Tim#78Senior Male0:13:39 11.2 1812
CARD Sarah#438Senior Female0:13:45 11.1 192
DESSENT Michael#70Senior Male0:13:50 11.1 2013
YUSKO Daniel#528Junior Male0:13:50 11.1 214
FLEISNER Rob#51440-49 Male0:13:50 11.1 223
GORDON Michael#50340-49 Male0:13:52 11 234
HENTSCHEL Vanessa#366Senior Female0:13:56 11 243
RICE Tim#68Senior Male0:13:57 11 2514
HOLMES Mick#194Senior Male0:13:57 11 2615
VAINS John#53440-49 Male0:13:57 11 275
MAIDMENT-WOOD Karen#35940-49 Female0:13:59 10.9 281
MAYERS Stuart#162Senior Male0:14:00 10.9 2916
SEEGEIS Mark#155Senior Male0:14:03 10.9 3017
CORBETT Jim#118Senior Male0:14:03 10.9 3118
YUSKO Bill#52640-49 Male0:14:13 10.8 326
SMITH Steven#516Junior Male0:14:13 10.8 335
COWELL Darren#33Senior Male0:14:19 10.7 3419
MOUNSEY Barny#42Senior Male0:14:22 10.6 3520
MCAPLINE Wendy#451Senior Female0:14:24 10.6 364
DALLINGER Chris#218Senior Male0:14:25 10.6 3721
FRANCIS Ben#79Senior Male0:14:25 10.6 3822
DAWSON Michael#178Senior Male0:14:28 10.6 3923
REID Jason#37Senior Male0:14:30 10.6 4024
DIXON Ben#208Senior Male0:14:30 10.6 4125
PYLE Cameron#140Senior Male0:14:31 10.5 4226
FLANAGAN David#54Senior Male0:14:33 10.5 4327
HOGHTON Daniel#129Senior Male0:14:36 10.5 4428
BRUCE Stephen#27Senior Male0:14:40 10.4 4529
MOCK Wayne#157Senior Male0:14:40 10.4 4630
GALBRAITH Dana#61640-49 Male0:14:41 10.4 477
COOPER Brett#559Junior Male0:14:44 10.4 486
FOLEY Christophe#72Senior Male0:14:47 10.3 4931
VOS Howard#69Senior Male0:14:52 10.3 5032
NAK Rodney#11Senior Male0:14:53 10.3 5133
NEWTON Rodney#35Senior Male0:14:54 10.3 5234
STEVENSON Darren#80Senior Male0:14:54 10.3 5335
PAPROTH Dale#77Senior Male0:14:54 10.3 5436
JOHNSON Glen#60840-49 Male0:14:54 10.3 558
HANLEY Brendan#634Junior Male0:14:55 10.3 567
BUTTIFANTY David#190Senior Male0:14:56 10.2 5737
CAPLE Alexander#542Junior Male0:14:57 10.2 588
MASON Nick#589Junior Male0:14:58 10.2 599
MOZURAS David#53Senior Male0:15:00 10.2 6038
NORMAN Jeffrey#59740-49 Male0:15:00 10.2 619
CONNELL Adam#170Senior Male0:15:01 10.2 6239
JUDD Gary#57240-49 Male0:15:02 10.2 6310
O'CONNELL Sarah#306Junior Female0:15:03 10.2 641
MOYLAN Nicholas#626Junior Male0:15:03 10.2 6510
WILLIAMS Kellie#404Senior Female0:15:04 10.2 665
MESSINA Steve#226Senior Male0:15:05 10.1 6740
FETTERPLACE Kate#402Junior Female0:15:06 10.1 682
FORD Penny#448Senior Female0:15:11 10.1 696
RUMFORD Peter#181Senior Male0:15:12 10.1 7041
LAMARD Christian#182Senior Male0:15:13 10.1 7142
DUNN Ian#61840-49 Male0:15:13 10.1 7211
SPOTTISWOOD James#607Junior Male0:15:14 10 7311
GRAHAME Sarah#433Junior Female0:15:16 10 743
ARMSTRONG Aleisha#305Junior Female0:15:16 10 754
CAMPBELL Paul#184Senior Male0:15:18 10 7643
ROLLAND Thierry#34Senior Male0:15:21 10 7744
MARSHALL Luke#158Senior Male0:15:25 9.9 7845
WATKINS Robert#164Senior Male0:15:30 9.9 7946
SMYTHE Gary#211Senior Male0:15:31 9.9 8047
TREVENA Martin#81Senior Male0:15:32 9.8 8148
ROSSITER Leah#397Senior Female0:15:32 9.8 827
HEWETT Noel#114Senior Male0:15:33 9.8 8349
FETTERPLACE Jessica#403Senior Female0:15:33 9.8 848
DEVLIN Carly#365Senior Female0:15:34 9.8 859
ACKLAND Nathan#13Senior Male0:15:35 9.8 8650
ROBINS Craig#32Senior Male0:15:37 9.8 8751
STONE Paul#209Senior Male0:15:37 9.8 8852
CONNOLLY Simon#108Senior Male0:15:41 9.8 8953
WILLIAMS Adam#151Senior Male0:15:42 9.7 9054
CLINTON Bradley#233Senior Male0:15:42 9.7 9155
MULHOLLAND Emily#413Senior Female0:15:42 9.7 9210
GROSS Mark#120Senior Male0:15:47 9.7 9356
LOVE Nigel#177Senior Male0:15:47 9.7 9457
LUNN Daniel#212Senior Male0:15:49 9.7 9558
WONG Richard#154Senior Male0:15:49 9.7 9659
FLYNN Kevin#207Senior Male0:15:50 9.7 9760
COUSINS Paul#149Senior Male0:15:52 9.6 9861
AVAGE Kelly#336Senior Female0:15:52 9.6 9911
BREWSTER Neil#63940-49 Male0:15:52 9.6 10012
CROFT Greg#53840-49 Male0:15:52 9.6 10113
PITTS Graeme#63040-49 Male0:15:55 9.6 10214
CLOSE Jason#146Senior Male0:15:56 9.6 10362
GAREL Michael#145Senior Male0:15:56 9.6 10463
CARTER Dean#561Male 50+0:15:57 9.6 1051
WILLIAMS Alastair#141Senior Male0:15:58 9.6 10664
REYNOLDS Darren#57Senior Male0:15:58 9.6 10765
OCONNELL Christina#393Senior Female0:15:59 9.6 10812
HOSKING Scott#220Senior Male0:16:00 9.6 10966
FAIRTHORNE Mark#62Senior Male0:16:00 9.6 11067
EVANS David#55Senior Male0:16:03 9.5 11168
HEATH Brad#51Senior Male0:16:03 9.5 11269
NORMAN Rick#103Senior Male0:16:04 9.5 11370
STINEAR David#224Senior Male0:16:04 9.5 11471
COSGRAVE Julian#121Senior Male0:16:06 9.5 11572
QUILFORD Rees#130Senior Male0:16:06 9.5 11673
NICHOLSON Peter#642Male 50+0:16:06 9.5 1172
YOUNG Daniel#197Senior Male0:16:07 9.5 11874
GOBINHO Marws#125Senior Male0:16:10 9.5 11975
STONE Prue#444Senior Female0:16:10 9.5 12013
ACKLAND Trevor#85Senior Male0:16:12 9.4 12176
MOSSE Peter#57840-49 Male0:16:12 9.4 12215
VANNER Michael#637Junior Male0:16:13 9.4 12312
O'DWYER Keiran#217Senior Male0:16:14 9.4 12477
HORACEK Francis#30Senior Male0:16:17 9.4 12578
MASON John#58840-49 Male0:16:17 9.4 12616
BOROMEO Gavin#83Senior Male0:16:19 9.4 12779
PEWTRESS Stephen#28Senior Male0:16:19 9.4 12880
BAXTER Gavin#43Senior Male0:16:20 9.4 12981
REID Christian#143Senior Male0:16:21 9.4 13082
MC ALLISTER Danny#74Senior Male0:16:22 9.3 13183
BROWN Ron#169Senior Male0:16:23 9.3 13284
FRANCIS Geoffrey#153Senior Male0:16:23 9.3 13385
PATON Craig#61140-49 Male0:16:23 9.3 13417
APPS Rod#205Senior Male0:16:25 9.3 13586
RODGERS Andrew#44Senior Male0:16:25 9.3 13687
CURTIS Aaron#506Junior Male0:16:25 9.3 13713
MCMASTER Paul#200Senior Male0:16:26 9.3 13888
BENNETT Nick#38Senior Male0:16:28 9.3 13989
ROWE Claire#341Senior Female0:16:29 9.3 14014
FISHER Tim#176Senior Male0:16:30 9.3 14190
MOSSE Kim#386Junior Female0:16:34 9.2 1425
WHYTE Neville#60040-49 Male0:16:36 9.2 14318
AIKEN Brett#122Senior Male0:16:37 9.2 14491
MC HENRY Andrew#640Junior Male0:16:37 9.2 14514
BILSTON David#234Senior Male0:16:40 9.2 14692
STRACHAN Donaovan#73Senior Male0:16:41 9.2 14793
FOGARTY Anthony#228Senior Male0:16:42 9.2 14894
FISHER Kevin#89Senior Male0:16:43 9.2 14995
HAYES Albert#25Senior Male0:16:44 9.1 15096
CALDWELL Jenny#302Female 50+0:16:44 9.1 1511
PARSONS Donal#10Senior Male0:16:47 9.1 15297
COULSEN Robert#62340-49 Male0:16:47 9.1 15319
COGAN Chris#201Senior Male0:16:48 9.1 15498
STONE Brad#132Senior Male0:16:49 9.1 15599
CROW Andrew#203Senior Male0:16:52 9.1 156100
DAFF Geoff#56840-49 Male0:16:52 9.1 15720
LEE Daniel#196Senior Male0:16:54 9.1 158101
BOWERS Erin#325Junior Female0:16:54 9.1 1596
MACINDOE Cameron#543Junior Male0:16:55 9 16015
COOKE Naomi#405Senior Female0:16:57 9 16115
RINGROSE Paul#51340-49 Male0:16:57 9 16221
EVANS Bree#360Junior Female0:16:58 9 1637
WHITEHOUSE Richard#61540-49 Male0:16:58 9 16422
DOOM Kathy#350Senior Female0:16:59 9 16516
TROJAN Lara#313Senior Female0:16:59 9 16617
CAPLE Sally#349Junior Female0:16:59 9 1678
JONES Paul#55040-49 Male0:16:59 9 16823
HORNSBY Anthony#174Senior Male0:17:00 9 169102
DE JONG Leigh#150Senior Female0:17:00 9 17018
STREET Greg#60440-49 Male0:17:00 9 17124
GILLIES Bill#64640-49 Male0:17:00 9 17225
BEHRSIN John#50840-49 Male0:17:00 9 17326
ROBINSON Peter#17Senior Male0:17:02 9 174103
SHERER Peter#64440-49 Male0:17:02 9 17527
MAIER David#127Senior Male0:17:03 9 176104
DALLINGER Brian#52940-49 Male0:17:03 9 17728
BURGESS Daniel#179Senior Male0:17:04 9 178105
VALENA Rex#53740-49 Male0:17:04 9 17929
DICKSON James#610Junior Male0:17:05 9 18016
EDWARDS Joff#189Senior Male0:17:06 8.9 181106
HARDHAM Catherine#458Senior Female0:17:06 8.9 18219
MILLER Todd#112Senior Male0:17:08 8.9 183107
KEADY Richard#570Male 50+0:17:12 8.9 1843
LOWE Darren#137Senior Male0:17:13 8.9 185108
SHEEDY Anthony#214Senior Male0:17:14 8.9 186109
BOWDEN Peter#175Senior Male0:17:15 8.9 187110
WILSON Sam#584Junior Male0:17:15 8.9 18817
BURT Ainslee#417Junior Female0:17:16 8.9 1899
DALLINGER Glenn#567Junior Male0:17:18 8.8 19018
BROWN Warwick#100Senior Male0:17:19 8.8 191111
FLANNAGAN Jason#160Senior Male0:17:20 8.8 192112
MENDEN Tanya#367Senior Female0:17:20 8.8 19320
TANCHEFF Brian#59340-49 Male0:17:20 8.8 19430
MANNING Simon#75Senior Male0:17:21 8.8 195113
BERESFORD Jason#87Senior Male0:17:21 8.8 196114
TUCKER Eddie#46Senior Male0:17:21 8.8 197115
STOOPMAN Jo#344Senior Female0:17:22 8.8 19821
JAMES Dylon#606Junior Male0:17:22 8.8 19919
CONNOLLY Sean#109Senior Male0:17:24 8.8 200116
CLATWORTHY John#152Senior Male0:17:26 8.8 201117
MACMILLAN Matthew#219Senior Male0:17:27 8.8 202118
TAYLOR Graham#52140-49 Male0:17:28 8.8 20331
REID Jamie#165Senior Male0:17:29 8.8 204119
LYDERMORE Steven#36Senior Male0:17:30 8.7 205120
FALLOON Darren#180Senior Male0:17:30 8.7 206121
MAUGER Yvonne#316Senior Female0:17:31 8.7 20722
CAMERON Jane#38140-49 Female0:17:32 8.7 2082
BICK Chris#9Senior Male0:17:33 8.7 209122
EDEN Shea#113Senior Female0:17:34 8.7 21023
POULTON Andrew#163Senior Male0:17:35 8.7 211123
ABRAHAMSON Gareth#168Senior Male0:17:37 8.7 212124
CREAN Angela#310Senior Female0:17:41 8.7 21324
JAMIESON Mark#55840-49 Male0:17:41 8.7 21432
HEPWORTH Geoffrey#52Senior Male0:17:42 8.6 215125
TROJAN Nadia#312Junior Female0:17:44 8.6 21610
FITZGERALD Kieran#617Junior Male0:17:44 8.6 21720
DICKSON Ronald#60940-49 Male0:17:45 8.6 21833
MURRAY Michael#60140-49 Male0:17:45 8.6 21934
MACINDOE Ian#67Senior Male0:17:47 8.6 220126
CAMPBELL Matthew#171Senior Male0:17:47 8.6 221127
BOYD Clinton#139Senior Male0:17:48 8.6 222128
HOSKING Tiz#37840-49 Female0:17:48 8.6 2233
WANDMAKER Paul#123Senior Male0:17:49 8.6 224129
MULLER Dale#56Senior Male0:17:50 8.6 225130
MULLER Rodney#135Senior Male0:17:51 8.6 226131
VAN DIJK Robbie#58140-49 Male0:17:51 8.6 22735
CALDWELL Les#502Male 50+0:17:52 8.6 2284
OLDEN Josh#128Senior Male0:17:53 8.6 229132
DE BRUYN Emma#399Junior Female0:17:53 8.6 23011
SALTER Ashley#166Senior Male0:17:54 8.5 231133
JACKSON Katherine#457Senior Female0:17:54 8.5 23225
THOMAS Chris#215Senior Male0:17:56 8.5 233134
ROSS Sharon#412Senior Female0:17:56 8.5 23426
SAPKIN Robert#55140-49 Male0:17:56 8.5 23536
LEDDIN Peter#62840-49 Male0:17:58 8.5 23637
MILLER Lisa#30140-49 Female0:17:59 8.5 2374
GREG Mal#191Senior Male0:18:01 8.5 238135
PIROUET Darren#8Senior Male0:18:03 8.5 239136
SUNDERLAND Peter#55740-49 Male0:18:06 8.5 24038
BROWN Darren#90Senior Male0:18:07 8.4 241137
HENKE David#594Male 50+0:18:07 8.4 2425
REASON Amber#436Senior Female0:18:10 8.4 24327
KOZLOW Hayden#88Senior Male0:18:11 8.4 244138
KYLE Danielle#379Senior Female0:18:11 8.4 24528
YOUNG Leigh#625Junior Male0:18:11 8.4 24621
SUTTON Ben#633Senior Male0:18:13 8.4 247139
IGLESIUS Philip#18Senior Male0:18:14 8.4 248140
MURDOCH Andrew#216Senior Male0:18:15 8.4 249141
WARBURTON Michelle#544Senior Female0:18:15 8.4 25029
ANDERSON Garry#51140-49 Male0:18:17 8.4 25139
STEWART Andrew#173Senior Male0:18:18 8.4 252142
GREGORY Arron#142Senior Male0:18:18 8.4 253143
MURRAY Gregory#52540-49 Male0:18:18 8.4 25440
DALLINGER Dean#565Junior Male0:18:20 8.3 25522
YUSKO Imogne#330Junior Female0:18:21 8.3 25612
EVANS Richard#183Senior Male0:18:22 8.3 257144
PETERSON Daniel#115Senior Male0:18:22 8.3 258145
JOHNSTON John#229Senior Male0:18:24 8.3 259146
THOMPSON Clinton#59Senior Male0:18:25 8.3 260147
WILIAMS Paul#65Senior Male0:18:29 8.3 261148
BEAUMONT Ashley#133Senior Male0:18:30 8.3 262149
ROBINSON Sarah#303Senior Female0:18:30 8.3 26330
SMITH Paul#53340-49 Male0:18:30 8.3 26441
BARRY Lawri#443Senior Female0:18:31 8.3 26531
FETTERPLACE David#596Male 50+0:18:31 8.3 2666
LITTLE Nathan#192Senior Male0:18:32 8.3 267150
BULL Deanne#445Senior Female0:18:33 8.2 26832
CLIFFORD Greg#186Senior Male0:18:34 8.2 269151
BOURKE Peter#126Senior Male0:18:34 8.2 270152
MCALLISTER Gerard#111Senior Male0:18:35 8.2 271153
GIFFIN Thomas#648Junior Male0:18:36 8.2 27223
CAPLE Eliza#348Junior Female0:18:38 8.2 27313
DUFFUS Vince#55240-49 Male0:18:38 8.2 27442
CHASTON Peter#64740-49 Male0:18:40 8.2 27543
COLBY Ross#54740-49 Male0:18:42 8.2 27644
MATTHEWS Robert#532Male 50+0:18:44 8.2 2777
DALL Joanna#321Senior Female0:18:45 8.2 27833
CARROLL Chris#131Senior Male0:18:47 8.1 279154
NICHOLSON Garry#56240-49 Male0:18:48 8.1 28045
JOHNSTON Brian#64540-49 Male0:18:48 8.1 28146
FISHER Simon#193Senior Male0:18:49 8.1 282155
MARUM Ellyse#426Junior Female0:18:52 8.1 28314
RIDDELL Amanda#401Junior Female0:18:53 8.1 28415
LINDSAY Carl#92Senior Male0:18:54 8.1 285156
GLASSCOCK Ian#91Senior Male0:18:54 8.1 286157
ROBINSON Tim#195Senior Male0:18:54 8.1 287158
DAWSON-GROVE Olivia#424Senior Female0:18:54 8.1 28834
MOLAN Anthony#225Senior Male0:18:56 8.1 289159
UTTING Jane#435Senior Female0:18:57 8.1 29035
COMMERFORD Bianca#334Senior Female0:18:58 8.1 29136
BERTINA Joseph#24Senior Male0:19:08 8 292160
MANNING John#159Senior Male0:19:10 8 293161
BEAUMONT Dean#61Senior Male0:19:10 8 294162
BARRY Karina#446Senior Female0:19:12 8 29537
KOSTER William#522Junior Male0:19:12 8 29624
JOLLY Danny#144Senior Male0:19:13 8 297163
BROWNS Daryl#19Senior Male0:19:14 8 298164
BILLINGSLEY Darren#117Senior Male0:19:14 8 299165
LEDGER Sam#106Senior Male0:19:16 7.9 300166
SHEPPARD Sam#161Senior Male0:19:18 7.9 301167
LINFORD Rob#602Junior Male0:19:20 7.9 30225
GORDON Sarah#427Junior Female0:19:21 7.9 30316
MULLER Nigel#47Senior Male0:19:22 7.9 304168
ORSINI Raff#60540-49 Male0:19:22 7.9 30547
O'SHANNESSY Peter#62440-49 Male0:19:24 7.9 30648
HOLMES Anthony#12Senior Male0:19:28 7.9 307169
VAWDON Margaret#434Female 50+0:19:29 7.9 3082
ADES Paul#56440-49 Male0:19:30 7.8 30949
CHILCOTT Timothy#110Senior Male0:19:34 7.8 310170
FLEISNER Paul#549Male 50+0:19:35 7.8 3118
RITTER Seb#99Senior Male0:19:36 7.8 312171
DENNIS Kim#422Senior Female0:19:37 7.8 31338
WRIGHT James#202Senior Male0:19:41 7.8 314172
DAVIE Richie#63840-49 Male0:19:42 7.8 31550
SHEPHERD Brett#167Senior Male0:19:44 7.8 316173
VEGA Daniel#563Junior Male0:19:47 7.7 31726
BEYER Katharina#414Senior Female0:19:49 7.7 31839
MILLER Anthony#40Senior Male0:19:50 7.7 319174
WHAN Cathy#338Senior Female0:19:50 7.7 32040
RASMUSSEN Nicole#391Senior Female0:19:50 7.7 32141
PRICE Brodie#641Junior Male0:19:51 7.7 32227
HOSKING Robert#629Male 50+0:19:51 7.7 3239
RUSSO Danny#41Senior Male0:19:52 7.7 324175
TUNSTALL Zoe#390Senior Female0:19:52 7.7 32542
GRAHAM Karen#456Senior Female0:19:52 7.7 32643
HARRIS David#210Senior Male0:19:54 7.7 327176
PIENING John#97Senior Male0:19:57 7.7 328177
COMMERFORD Peter#52340-49 Male0:20:03 7.6 32951
GRAY Anthony#54640-49 Male0:20:04 7.6 33052
ROOKS David#22Senior Male0:20:06 7.6 331178
COX Bill#57440-49 Male0:20:08 7.6 33253
HUGHES Bronwyn#42540-49 Female0:20:09 7.6 3335
BREWSTER Dale#595Junior Male0:20:09 7.6 33428
PASZTALENIEC David#86Senior Male0:20:12 7.6 335179
PEARCE Aaron#66Senior Male0:20:12 7.6 336180
SHADBOLT Ian#57340-49 Male0:20:12 7.6 33754
LACEY Fleur#400Junior Female0:20:13 7.6 33817
CLARESBOR'H Annika#317Senior Female0:20:13 7.6 33944
PORTCH Deane#61940-49 Female0:20:14 7.6 3406
CREAN Peter#509Male 50+0:20:14 7.6 34110
MORRISSEY Lisa#384Senior Female0:20:16 7.5 34245
MULLER Tania#411Senior Female0:20:17 7.5 34346
WILLIAMS Ian#50Senior Male0:20:18 7.5 344181
EVERETT Glen#101Senior Male0:20:19 7.5 345182
WALKER Chrisine#320Female 50+0:20:19 7.5 3463
THURGOOD Neville#107Senior Male0:20:20 7.5 347183
DUKE Lisa#419Senior Female0:20:20 7.5 34847
KLASS Terry#51740-49 Male0:20:20 7.5 34955
DEVINE Deborah#374Senior Female0:20:22 7.5 35048
CHANDLER Mark#104Senior Male0:20:23 7.5 351184
SCANLON John#102Senior Male0:20:25 7.5 352185
MILLER Claire#44040-49 Female0:20:25 7.5 3537
ROBINSON Sandy#340Senior Female0:20:29 7.5 35449
JOHNSON Bruce#93Senior Male0:20:30 7.5 355186
CLOSE Susan#418Senior Female0:20:30 7.5 35650
WEBSTER Lisa#452Senior Female0:20:31 7.5 35751
TAYLOR Rick#57940-49 Male0:20:31 7.5 35856
HOOPER Mick#51940-49 Male0:20:31 7.5 35957
CARTER Sandra#432Junior Female0:20:32 7.5 36018
STEWART Kimberly#396Senior Female0:20:32 7.5 36152
NICHOLSON Mary#453Female 50+0:20:33 7.4 3624
WILLIAMSON David#147Senior Male0:20:34 7.4 363187
WILSON Ian#58540-49 Male0:20:37 7.4 36458
BURGESS Aaron#172Senior Male0:20:44 7.4 365188
GEORGE Kelly#304Senior Female0:20:45 7.4 36653
VAN BREEMAN Deanne#398Senior Female0:20:47 7.4 36754
HYNDMAN Greg#58640-49 Male0:20:47 7.4 36859
JOHNSON Gillian#481Senior Female0:20:48 7.4 36955
TAYLOR Sarah#382Senior Female0:20:49 7.3 37056
WHITEHOUSE Cara#428Junior Female0:20:52 7.3 37119
ESNOUF John#613Male 50+0:20:53 7.3 37211
AVACE Ian#124Senior Male0:20:55 7.3 373189
DEVLYN Shane#21Senior Male0:20:57 7.3 374190
CLARKE Jarrod#198Senior Male0:21:00 7.3 375191
PURVIS Daryl#64340-49 Male0:21:01 7.3 37660
REID John#599Male 50+0:21:04 7.3 37712
FURPHY Annabelle#421Senior Female0:21:05 7.3 37857
RENISON Rick#541Male 50+0:21:07 7.2 37913
VINE Paul#94Senior Male0:21:09 7.2 380192
KOSTOS Michael#62140-49 Male0:21:10 7.2 38161
CUTHBERTSON Diddy#407Senior Male0:21:14 7.2 382193
RITCHIE-JONES Jennifer#36140-49 Female0:21:15 7.2 3838
WOODWARD Tina#362Senior Female0:21:15 7.2 38458
HOPKINS Barry#55540-49 Male0:21:17 7.2 38562
HILL Kenneth#105Senior Male0:21:20 7.2 386194
O'HARA Cameron#64Senior Male0:21:22 7.2 387195
TERENYI Ehren#635Junior Male0:21:22 7.2 38829
BARRETT Mark#58740-49 Male0:21:22 7.2 38963
REASON Geoffrey#631Male 50+0:21:23 7.2 39014
SMITH Ken#50440-49 Male0:21:25 7.1 39164
BOWERS Meredith#32640-49 Female0:21:28 7.1 3929
ZIMMERMAN Kirrily#311Senior Female0:21:29 7.1 39359
MOON Alison#370Senior Female0:21:29 7.1 39460
WILSON Noni#392Junior Female0:21:30 7.1 39520
BULL Lyndall#395Senior Female0:21:30 7.1 39661
WEIR Warren#60340-49 Male0:21:31 7.1 39765
GOULD Susanne#323Female 50+0:21:33 7.1 3985
BASSETT Sherryn#337Senior Female0:21:37 7.1 39962
LAWRY Peter#556Male 50+0:21:37 7.1 40015
PRENDERGAST Kevin#583Male 50+0:21:37 7.1 40116
TODD Alycia#430Senior Female0:21:42 7.1 40263
PLANT David#96Senior Male0:21:43 7 403196
ZORIN Katerina#368Junior Female0:21:43 7 40421
WATTS Peter#116Senior Male0:21:45 7 405197
HALL Janette#385Senior Female0:21:45 7 40664
LUCAS Paul#231Senior Male0:21:46 7 407198
DRENNAN Kelly#437Junior Female0:21:48 7 40822
FITZSIMONS Kathleen#447Senior Female0:21:53 7 40965
REES Karen#442Senior Female0:21:56 7 41066
MILLER Nicole#324Senior Female0:21:57 7 41167
FERNIE Doug#571Male 50+0:21:57 7 41217
HALL Kerri#363Junior Female0:21:58 7 41323
BELLETT Jodi#357Senior Female0:22:02 6.9 41468
SMITH Greg#230Senior Male0:22:05 6.9 415199
WAGLAND Wayne#213Senior Male0:22:07 6.9 416200
CURTIS Leigh#505Male 50+0:22:08 6.9 41718
O'DONOHUE Mark#136Senior Male0:22:09 6.9 418201
TSCHIDERER Melanie#347Senior Female0:22:15 6.9 41969
PARRY Ann-Marie#335Senior Female0:22:16 6.9 42070
HENDY Robert#45Senior Male0:22:18 6.9 421202
HENDERSON Emma#441Senior Female0:22:22 6.8 42271
DALLINGER Kevin#56640-49 Male0:22:24 6.8 42366
DE PIAZZA William#53540-49 Male0:22:25 6.8 42467
TODD Michelle#429Senior Female0:22:29 6.8 42572
SMITH John#500Male 50+0:22:29 6.8 42619
GRIFFITHS Ian#59140-49 Male0:22:30 6.8 42768
VAN DIJK Karen#38940-49 Female0:22:32 6.8 42810
LENZ Christophe#59240-49 Male0:22:33 6.8 42969
MEAGHER Kerryn#598Junior Female0:22:38 6.8 43024
DICKENS Jeanette#32840-49 Female0:22:40 6.7 43111
WISE Carolyn#431Senior Female0:22:44 6.7 43273
DUNCAN Roger#49Senior Male0:22:54 6.7 433203
TOZER Peter#84Senior Male0:22:55 6.7 434204
HUMPHRIES Caroline#352Senior Female0:22:57 6.7 43574
KOSTER Cheryl#300Senior Female0:22:58 6.7 43675
WILKINSON Debbie#455Senior Female0:23:05 6.6 43776
RITTER Andrew#98Senior Male0:23:07 6.6 438205
CARTON Jenny#30840-49 Female0:23:12 6.6 43912
PARTON Chris#58040-49 Male0:23:13 6.6 44070
REDFERN Lloyd#548Male 50+0:23:15 6.6 44120
PHOTOPOULOS Con#530Male 50+0:23:16 6.6 44221
GREENHAIGH Paul#63Senior Male0:23:22 6.5 443206
ADES Donna#37340-49 Female0:23:28 6.5 44413
WEST Trevor#63240-49 Male0:23:28 6.5 44571
GASSNER Martina#410Senior Female0:23:29 6.5 44677
MAKI Leela#38340-49 Female0:23:37 6.5 44714
HOWE Brett#221Senior Male0:23:39 6.5 448207
STEWART Jackie#327Senior Female0:23:45 6.4 44978
BOYLE Adrienne#388Senior Female0:23:49 6.4 45079
HALLIDAY Craig#51240-49 Male0:23:50 6.4 45172
PEARCE Merryn#353Junior Female0:23:51 6.4 45225
MCDONALD Geoff#148Senior Male0:23:52 6.4 453208
CAILE Nici#450Senior Female0:23:53 6.4 45480
JOHNSTON Robyn#33240-49 Female0:23:54 6.4 45515
PLANT Mark Victo#55340-49 Male0:23:58 6.4 45673
CURTIS Susan#342Senior Female0:24:00 6.4 45781
TUCKER Simone#333Senior Female0:24:11 6.3 45882
HARPER Nicole#420Senior Female0:24:18 6.3 45983
KEWMING Robyn#41540-49 Female0:24:27 6.3 46016
BROWN Trudy#372Senior Female0:24:29 6.2 46184
HOLLINS Jennifer#406Senior Female0:24:37 6.2 46285
WILKINS Lisa#454Senior Female0:24:38 6.2 46386
POUTLON Vicky#423Senior Female0:24:39 6.2 46487
COOPER Ric#560Male 50+0:24:48 6.2 46522
REEK George#577Male 50+0:24:56 6.1 46623
SPAARGAREN Kerri#369Senior Female0:25:00 6.1 46788
ARMSTRONG Amanda#380Senior Female0:25:03 6.1 46889
COLEMAN Mark#64940-49 Male0:25:09 6.1 46974
HILL Jennifer#387Senior Female0:25:12 6.1 47090
SESTI Fiona#377Junior Female0:25:16 6.1 47126
MANSELL Steven#232Senior Male0:25:23 6 472209
BOXSHALL Sharon#364Senior Female0:25:34 6 47391
BEWLEY Rikki#315Female 50+0:25:39 6 4746
WALL Brad#222Senior Male0:25:42 6 475210
WILLIAMS Robert#59040-49 Male0:25:48 5.9 47675
KONTOGOURIS Earlene#314Female 50+0:26:01 5.9 4777
STEVENS Kevin#515Male 50+0:26:02 5.9 47824
CURTIS Brad#58Senior Male0:26:03 5.9 479211
KOSTOS Peter#620Senior Male0:26:19 5.8 480212
GARGAN Bridget#358Senior Female0:26:40 5.7 48192
TIVER Alex#439Senior Female0:27:15 5.6 48293
HORROCKS Mark#57640-49 Male0:27:17 5.6 48376
BEAUMONT Peta#343Senior Female0:27:36 5.5 48494
CHURCHILL Danielle#449Senior Female0:27:38 5.5 48595
GASSNER Stefanie#408Senior Female0:27:43 5.5 48696
STEPHENS Wayne#554Male 50+0:27:53 5.5 48725
WALSH Neil#614Male 50+0:27:54 5.5 48826
NEWLAND Stephanie#355Senior Female0:28:06 5.4 48997
DAFF Jan#376Female 50+0:28:32 5.4 4908
PLANT Melissa Ja#375Senior Female0:28:33 5.4 49198
SAGE Albert#520Male 50+0:29:08 5.3 49227
MACRAE Scott#20Senior Male0:29:16 5.2 493213
DUNSCOMBE Jared#26Senior Male0:29:28 5.2 494214
REBGETZ Jan#33940-49 Female0:30:06 5.1 49517
CONNELL Glen#134Senior Male0:30:56 4.9 496215
WHITE Donald#539Male 50+0:31:52 4.8 49728
CANE Michael#62740-49 Male0:34:10 4.5 49877
ABRAHAMSON Marcus#206Senior Male0:35:42 4.3 499216
MITCHELL Jill#345Female 50+0:48:33 3.2 5009